Regional Weather Roundup
Issued by NWS

Home | Current Version | Previous Version | Text Only | Print | Product List | Glossary Off
Versions: 1 2 3 4 5 6 7 8 9 10 11 12 13 14 15 16 17 18 19 20 21 22 23 24 25 26 27 28 29 30 31 32 33 34 35 36 37 38 39 40 41 42 43 44 45 46 47 48 49 50

000
ASUS43 KFSD 080802
RWRSD

WEATHER ROUNDUP FOR SOUTH DAKOTA
NATIONAL WEATHER SERVICE SIOUX FALLS SD
200 AM CST MON FEB 08 2016

NOTE: "FAIR" INDICATES FEW OR NO CLOUDS BELOW 12,000 FEET WITH NO
SIGNIFICANT WEATHER AND/OR OBSTRUCTIONS TO VISIBILITY.


SDZ001>005-009-010-012>017-080900-
NORTHWEST AND NORTH CENTRAL SOUTH DAKOTA

CITY           SKY/WX    TMP DP  RH WIND       PRES   REMARKS
BUFFALO          N/A     27  13  55 NW25G36   30.21F WCI  12
FAITH            N/A     26  14  60 NW23G30   30.24R WCI  11
MOBRIDGE       MOCLDY    28  17  63 N24G36    30.14S WCI  14
$$

SDZ012>016-024>037-041>051-057-063-072>074-080900-
SOUTHWEST AND SOUTH CENTRAL SOUTH DAKOTA

CITY           SKY/WX    TMP DP  RH WIND       PRES   REMARKS
RAPID CTY ARPT CLEAR     30  10  43 N29G39    30.29S WCI  15
PIERRE         CLEAR     29  17  61 NW26G44   30.17S WCI  14
CUSTER         CLEAR     21  -5  31 NW20G32   30.21F WCI   6
ELLSWORTH AFB  CLEAR     30  10  43 N28G36    30.28R WCI  15
PHILIP         CLEAR     30  17  58 NW20G29   30.26R WCI  17
PINE RIDGE     CLEAR     22   7  52 NW6       30.31R WCI  14
WINNER         FAIR      30  17  58 NW29G46   30.16S WCI  15
$$

SDZ004>011-016>023-039-040-080900-
NORTHEAST SOUTH DAKOTA

CITY           SKY/WX    TMP DP  RH WIND       PRES   REMARKS
ABERDEEN       CLOUDY    27  16  63 N26G41    30.08R WCI  12
WATERTOWN      LGT SNOW  19  13  77 N29G38    29.97R WCI   0
BROOKINGS      LGT SNOW  19  14  81 N26G36    29.94R WCI   1
SISSETON         N/A     17  13  84 N22G29    30.01S WCI   0
$$

SDZ017-020-022-023-036>040-048>070-080900-
SOUTHEAST SOUTH DAKOTA

CITY           SKY/WX    TMP DP  RH WIND       PRES   REMARKS
SIOUX FALLS    CLOUDY    23  15  71 N28G36    29.97S WCI   6
HURON          CLOUDY    27  18  69 N24G36    30.05S WCI  12
MITCHELL       MIX PCPN  29  20  69 NW28G47   30.07R WCI  14
YANKTON        PTCLDY    28  18  64 NW31G44   30.03R WCI  12
$$

ABBREVIATIONS USED IN REMARKS
   TC - TEMPERATURE IN CELSIUS
  WCI - WIND CHILL INDEX
   HX - HEAT INDEX
  VSB - VISIBILITY




USA.gov is the U.S. government's official web portal to all federal, state and local government web resources and services.